This demonstration page uses our WeatherBlox Daily Observations layout. Learn more.

Left ArrowRight Arrow

34.16533, -84.80231

Hourly Observations for May 18, 2017

Temp ( °F °C ) Dew Point ( °F °C ) Humidity (%) Winds ( mph kmh ) Pressure ( in mb ) Visibility ( mi km ) Precip ( " mm )
12:53 am 00:53 Cloudy 73 22.8 64 17.8 74 74 Calm 30.02 1017 10 16 0.00 0.00
1:53 am 01:53 Cloudy 71 21.7 65 18.3 81 81 Calm 30.02 1017 10 16 0.00 0.00
2:53 am 02:53 Cloudy 70 21.1 65 18.3 84 84 Calm 30.02 1017 10 16 0.00 0.00
3:53 am 03:53 Cloudy 73 22.8 63 17.2 71 71 Calm 30.02 1017 10 16 0.00 0.00
4:53 am 04:53 Mostly Clear 67 19.4 64 17.8 91 91 Calm 30.02 1017 10 16 0.00 0.00
5:53 am 05:53 Mostly Clear 71 21.7 65 18.3 81 81 SSE 6 9 30.04 1017 10 16 0.00 0.00
6:53 am 06:53 Partly Cloudy 69 20.6 65 18.3 87 87 Calm 30.06 1018 10 16 0.00 0.00
7:53 am 07:53 Mostly Cloudy 71 21.7 66 18.9 84 84 Calm 30.08 1019 10 16 0.00 0.00
8:53 am 08:53 Partly Cloudy 75 23.9 68 20 79 79 VRB 5 7 30.09 1019 10 16 0.00 0.00
9:53 am 09:53 Mostly Cloudy 78 25.6 69 20.6 74 74 undefined N/A 30.10 1019 10 16 0.00 0.00
10:53 am 10:53 Partly Cloudy 80 26.7 70 21.1 71 71 VRB 5 7 30.10 1019 10 16 0.00 0.00
11:53 am 11:53 Partly Cloudy 81 27.2 69 20.6 67 67 Calm 30.09 1019 10 16 0.00 0.00
12:53 pm 12:53 Mostly Cloudy 84 28.9 69 20.6 61 61 undefined N/A 30.07 1018 10 16 0.00 0.00
1:53 pm 13:53 Partly Cloudy 84 28.9 68 20 59 59 VRB 3 6 30.06 1018 10 16 0.00 0.00
2:53 pm 14:53 Partly Cloudy 87 30.6 66 18.9 50 50 VRB 3 6 30.04 1017 10 16 0.00 0.00
3:53 pm 15:53 Cloudy 85 29.4 69 20.6 59 59 SSE 6 9 30.02 1017 10 16 0.00 0.00
4:53 pm 16:53 Partly Cloudy 87 30.6 68 20 53 53 SSE 6 9 30.01 1016 10 16 0.00 0.00
5:53 pm 17:53 Sunny 85 29.4 67 19.4 55 55 S 6 9 30.01 1016 10 16 0.00 0.00
6:53 pm 18:53 Mostly Cloudy 84 28.9 69 20.6 61 61 SE 5 7 29.99 1016 10 16 0.00 0.00
7:53 pm 19:53 Mostly Sunny 78 25.6 72 22.2 82 82 SSE 3 6 30.01 1016 10 16 0.00 0.00
8:53 pm 20:53 Clear 75 23.9 71 21.7 88 88 Calm 30.01 1016 10 16 0.00 0.00
9:53 pm 21:53 Clear 72 22.2 70 21.1 94 94 SE 5 7 30.01 1016 10 16 0.00 0.00
10:53 pm 22:53 Clear 71 21.7 70 21.1 96 96 Calm 30.02 1017 10 16 0.00 0.00
11:53 pm 23:53 Clear 70 21.1 70 21.1 100 100 Calm 30.02 1017 10 16 0.00 0.00

Powered by AerisWeather